{"data":{"norad_id":54669,"intl_designator":"2022-166AD","name":"ONEWEB-0605","alt_names":[],"object_type":"PAYLOAD","status":"ACTIVE","operator":null,"country":"UK","launch_date":"2022-12-08","launch_site_code":"AFETR","launch_vehicle":null,"mission":null,"orbit_class":"UNKNOWN","rcs_meters":null,"size_class":null,"mass_kg":null,"dimensions":null,"purposes":["comms"],"wikipedia_slug":null,"has_3d_model":false,"image_url":null,"decayed_at":null,"tle_current":{"epoch":"2026-05-25T01:12:46.583424Z","epoch_age_seconds":81063,"freshness":"FRESH","line1":"1 54669U 22166AD  26145.05053916  .00000027  00000+0  33445-4 0  9995","line2":"2 54669  87.9253 248.5904 0002599 105.1684 254.9738 13.21823793168459","mean_motion":13.21823793,"eccentricity":0.0002599,"inclination_deg":87.9253,"raan_deg":248.5904,"arg_perigee_deg":105.1684,"mean_anomaly_deg":254.9738,"bstar":3.3445e-5,"rev_number":16845,"period_min":108.94039036261,"perigee_km":1175.7980007989,"apogee_km":1179.7255569841,"semimajor_km":7555.8987788915,"source":"CELESTRAK","updated_at":"2026-05-25T13:38:22.635767Z"}}}